Wink, TX

4:07 AM CDT on April 24, 2017 (GMT -0500)
Winkler County

Weather History for KINK - August, 2012

Change the Weather History Date:

Sunday, August 19, 2012

  Actual Average Record
Temperature  
Mean Temperature 82 °F -  
Max Temperature 93 °F 96 °F 108 °F (2007)
Min Temperature 73 °F 68 °F 61 °F (1940)
Cooling Degree Days 17    
Growing Degree Days 32 (Base 50)    
Moisture  
Dew Point 64 °F    
Average Humidity 59    
Maximum Humidity 76    
Minimum Humidity 36    
Precipitation  
Precipitation 0.02 in - - ()
Sea Level Pressure  
Sea Level Pressure 29.87 in    
Wind  
Wind Speed 9 mph (East)    
Max Wind Speed 18 mph    
Max Gust Speed 30 mph    
Visibility 10 miles    
Events Rain    
Averages and records for this station are not official NWS values.
T = Trace of Precipitation, MM = Missing Value Source: NWS Daily Summary

Daily Weather History Graph

Daily Weather History Graph

Search for Another Location

Airport or City:

Trip Planner

Search our weather history database for the weather conditions in past years. The results will help you decide how hot, cold, wet, or windy it might be!

Date:

Astronomy

Aug. 19, 2012 Rise Set
Actual Time 7:20 AM CDT 8:31 PM CDT
Civil Twilight 6:55 AM CDT 8:56 PM CDT
Nautical Twilight 6:24 AM CDT 9:26 PM CDT
Astronomical Twilight 5:53 AM CDT 9:58 PM CDT
Moon 9:24 AM CDT (8/19) 9:36 PM CDT (8/19)
Length of Visible Light 14h 01m
Length of Day
13h 10m
Waxing Crescent, 5% of the Moon is Illuminated
Aug 19
Waxing Crescent
Aug 24
First Quarter
Aug 31
Full
Sep 8
Last Quarter
Sep 15
New

Hourly Weather History & Observations

Time (CDT) Temp. Heat Index Dew Point Humidity Pressure Visibility Wind Dir Wind Speed Gust Speed Precip Events Conditions
12:53 AM 80.1 °F 81.9 °F 64.9 °F 60% 29.80 in 10.0 mi ESE 10.4 mph - N/A   Clear
1:53 AM 78.1 °F - 66.9 °F 68% 29.81 in 10.0 mi East 6.9 mph - N/A   Partly Cloudy
2:53 AM 75.9 °F - 66.9 °F 74% 29.81 in 10.0 mi NNE 5.8 mph - N/A   Clear
3:53 AM 75.9 °F - 66.9 °F 74% 29.82 in 10.0 mi NE 3.5 mph - N/A   Clear
4:53 AM 75.9 °F - 66.0 °F 71% 29.82 in 10.0 mi NE 4.6 mph - N/A   Clear
5:53 AM 75.0 °F - 66.9 °F 76% 29.82 in 10.0 mi ENE 5.8 mph - N/A   Clear
6:53 AM 75.0 °F - 66.9 °F 76% 29.84 in 10.0 mi ENE 10.4 mph - N/A   Clear
7:53 AM 73.9 °F - 64.9 °F 73% 29.88 in 10.0 mi ENE 9.2 mph - N/A   Clear
8:53 AM 75.9 °F - 66.0 °F 71% 29.90 in 10.0 mi East 11.5 mph - N/A   Clear
9:53 AM 77.0 °F - 66.0 °F 69% 29.91 in 10.0 mi East 9.2 mph - N/A   Clear
10:53 AM 80.1 °F 82.1 °F 66.0 °F 62% 29.93 in 10.0 mi East 10.4 mph - N/A   Clear
11:53 AM 82.9 °F 84.6 °F 64.9 °F 54% 29.92 in 10.0 mi Variable 3.5 mph - N/A   Clear
12:53 PM 87.1 °F 88.3 °F 64.0 °F 46% 29.91 in 10.0 mi ESE 6.9 mph - N/A   Partly Cloudy
1:53 PM 89.1 °F 89.3 °F 62.1 °F 40% 29.89 in 10.0 mi Variable 3.5 mph - N/A   Partly Cloudy
2:53 PM 91.0 °F 90.9 °F 61.0 °F 36% 29.86 in 10.0 mi East 6.9 mph - N/A   Clear
3:44 PM 84.2 °F 85.6 °F 64.4 °F 51% 30.00 in 10.0 mi NE 18.4 mph 29.9 mph 0.00 in Rain Light Rain
3:53 PM 81.0 °F 84.1 °F 69.1 °F 67% 29.86 in 5.0 mi NE 17.3 mph 25.3 mph 0.01 in Rain Rain
4:53 PM 87.1 °F 88.3 °F 64.0 °F 46% 29.84 in 10.0 mi ESE 17.3 mph 23.0 mph 0.01 in   Clear
5:53 PM 86.0 °F 86.3 °F 62.1 °F 44% 29.83 in 10.0 mi East 13.8 mph 21.9 mph N/A   Clear
6:53 PM 86.0 °F 85.0 °F 57.9 °F 38% 29.83 in 10.0 mi East 13.8 mph - N/A   Clear
7:53 PM 82.9 °F 82.6 °F 57.9 °F 42% 29.84 in 10.0 mi ESE 9.2 mph - N/A   Clear
8:53 PM 80.1 °F 80.9 °F 60.1 °F 50% 29.85 in 10.0 mi East 5.8 mph - N/A   Clear
9:53 PM 79.0 °F - 61.0 °F 54% 29.89 in 10.0 mi East 8.1 mph - N/A   Clear
10:53 PM 75.0 °F - 63.0 °F 66% 29.92 in 10.0 mi ESE 6.9 mph - N/A   Clear
11:53 PM 73.0 °F - 64.0 °F 73% 29.94 in 10.0 mi ESE 5.8 mph - N/A   Clear